Regional Weather Roundup
Issued by NWS

Home | Current Version | Previous Version | Text Only | Print | Product List | Glossary Off
Versions: 1 2 3 4 5 6 7 8 9 10 11 12 13 14 15 16 17 18 19 20 21 22 23 24 25 26 27 28 29 30 31 32 33 34 35 36 37 38 39 40 41 42 43 44 45 46 47 48 49 50

133
ASUS43 KOAX 240010
RWRNE

WEATHER ROUNDUP FOR NEBRASKA
NATIONAL WEATHER SERVICE OMAHA NE
700 PM CDT FRI JUN 23 2017

NOTES: SATELLITE DATA IS BEING USED TO AUGMENT CLOUD COVER ABOVE
       12000 FEET.
       "FAIR" INDICATES FEW OR NO CLOUDS BELOW 12,000 FEET WITH NO
       SIGNIFICANT WEATHER AND/OR OBSTRUCTIONS TO VISIBILITY.

  * THESE STATIONS DO NOT REPORT WEATHER SUCH AS RAIN...SNOW OR FOG.

NEZ001>004-019>022-054>056-240100-
NEBRASKA PANHANDLE

CITY           SKY/WX    TMP DP  RH WIND       PRES   REMARKS
SCOTTSBLUFF    MOSUNNY   73  31  21 N12G22    30.17S
6HR MIN TEMP:  69; 6HR MAX TEMP:  76;

ALLIANCE       SUNNY     71  31  22 NW15G23   30.16S
6HR MIN TEMP:  65; 6HR MAX TEMP:  73;

CHADRON        SUNNY     72  26  18 NW16G25   30.15R
6HR MIN TEMP:  66; 6HR MAX TEMP:  74;

GORDON         FAIR      68  36  30 N12G17    30.16S
6HR MIN TEMP:  62; 6HR MAX TEMP:  70;

KIMBALL        SUNNY     70  40  33 N8        30.21S
SIDNEY         SUNNY     72  35  25 N12G18    30.19S
6HR MIN TEMP:  58; 6HR MAX TEMP:  73;

$$

NEZ057>060-069>072-079>082-240100-
SOUTHWEST NEBRASKA

CITY           SKY/WX    TMP DP  RH WIND       PRES   REMARKS
NORTH PLATTE   MOSUNNY   76  40  27 N12       30.10S
6HR MIN TEMP:  72; 6HR MAX TEMP:  78;

IMPERIAL       SUNNY     76  34  21 W7        30.12F
6HR MIN TEMP:  68; 6HR MAX TEMP:  77;

LEXINGTON      SUNNY     74  43  32 N10G17    30.09F
MCCOOK         MOSUNNY   79  35  20 N15       30.09F
6HR MIN TEMP:  73; 6HR MAX TEMP:  82;

OGALLALA       SUNNY     77  32  19 N13G22    30.13S
$$

NEZ005>010-023>029-035>040-094-240100-
NORTH CENTRAL NEBRASKA

CITY           SKY/WX    TMP DP  RH WIND       PRES   REMARKS
VALENTINE      MOSUNNY   73  30  20 N14       30.12R
6HR MIN TEMP:  66; 6HR MAX TEMP:  76;

AINSWORTH      MOSUNNY   70  36  28 NW20      30.12R
BROKEN BOW     MOSUNNY   73  41  31 NW14      30.10R
6HR MIN TEMP:  70; 6HR MAX TEMP:  75;

O`NEILL        SUNNY     71  38  30 NW14G24   30.08R
ORD            SUNNY     71  39  31 NW15      30.07S
6HR MIN TEMP:  70; 6HR MAX TEMP:  74;

THEDFORD       SUNNY     72  38  29 N16G22    30.14S
$$

NEZ041-046>049-061>064-073>077-083>087-240100-
SOUTH CENTRAL NEBRASKA

CITY           SKY/WX    TMP DP  RH WIND       PRES   REMARKS
GRAND ISLAND   MOSUNNY   74  46  36 NW18G26   30.07S
6HR MIN TEMP:  70; 6HR MAX TEMP:  77;

AURORA         SUNNY     73  47  38 N9        30.06S
HASTINGS       SUNNY     75  45  34 N15G21    30.08S
6HR MIN TEMP:  69; 6HR MAX TEMP:  78;

HEBRON         MOSUNNY   77  46  33 N12G17    30.04R
HOLDREGE       SUNNY     74  41  30 N10G18    30.08S
KEARNEY *      SUNNY     75  41  29 N13G18    30.09R
YORK           MOSUNNY   73  46  38 NW14G20   30.06R
$$

NEZ011>018-030>034-042>045-240100-
NORTHEAST NEBRASKA

CITY           SKY/WX    TMP DP  RH WIND       PRES   REMARKS
NORFOLK        MOSUNNY   71  43  36 NW14G23   30.03R
6HR MIN TEMP:  69; 6HR MAX TEMP:  73;

ALBION         PTSUNNY   73  42  32 N14G20    30.06R
BLAIR          PTSUNNY   71  48  43 NW14      30.01R
FREMONT        PTSUNNY   71  47  42 NW13      30.03R
TEKAMAH        PTSUNNY   72  47  40 NW13      30.00R
6HR MIN TEMP:  69; 6HR MAX TEMP:  77;

WAYNE          MOSUNNY   72  44  36 NW14G20   30.02R
$$

NEZ050>053-065>068-078-088>093-240100-
SOUTHEAST NEBRASKA

CITY           SKY/WX    TMP DP  RH WIND       PRES   REMARKS
LINCOLN        MOSUNNY   75  50  41 N20       30.03R
6HR MIN TEMP:  70; 6HR MAX TEMP:  78;

OMAHA EPPLEY   PTSUNNY   74  50  42 NW14      29.99R
6HR MIN TEMP:  70; 6HR MAX TEMP:  78;

BEATRICE       MOSUNNY   74  50  42 NW14G20   30.03R
FALLS CITY     SUNNY     74  53  48 N10       30.00R
6HR MIN TEMP:  71; 6HR MAX TEMP:  75;

NEBRASKA CITY  SUNNY     71  54  54 N9        30.01R
PLATTSMOUTH    PTSUNNY   72  50  44 N7        30.01R
$$

NEZ044-045-051>053-067-240100-
OMAHA AREA

CITY           SKY/WX    TMP DP  RH WIND       PRES   REMARKS
OMAHA EPPLEY   PTSUNNY   74  50  42 NW14      29.99R
6HR MIN TEMP:  70; 6HR MAX TEMP:  78;

BLAIR          PTSUNNY   71  48  43 NW14      30.01R
FREMONT        PTSUNNY   71  47  42 NW13      30.03R
MILLARD        PTSUNNY   74  51  44 NW9G17    30.01R
OFFUTT AFB     PTSUNNY   73  49  41 NW16      30.00R
PLATTSMOUTH    PTSUNNY   72  50  44 N7        30.01R
WAHOO          MOCLDY    73  44  36 NW14G23   30.02R
$$




USA.gov is the U.S. government's official web portal to all federal, state and local government web resources and services.